[[{"header":{"parameterUnit":"m.s-1","parameterCategory":1,"la1":30.2992,"la2":30.254,"lo1":-89.0895,"lo2":-89.0443,"dy":0.0025,"dx":0.0025,"nx":19,"ny":19,"refTime":"2026-04-17T09:00:00:Z","depth":0,"parameterNumber":2,"parameterNumberName":"U-component_of_WINDS"},"data":[0,0,0,1.5459,1.5462,1.5629,1.563,1.5833,1.5835,0,0,0,0,0,0,0,0,0,0,0,1.5403,1.5404,1.5459,1.5463,1.5629,1.563,1.5833,1.5835,0,0,0,0,0,0,0,0,0,0,0,1.5402,1.5403,1.5405,1.5463,1.5629,1.563,1.5833,1.571,0,0,0,0,0,0,0,0,0,0,1.555,1.5492,1.5403,1.5405,1.5464,1.5629,1.563,1.5705,1.5718,1.5753,0,1.5782,0,1.5811,1.5848,1.5849,0,0,0,1.5468,1.548,1.5531,1.5405,1.5465,1.5629,1.5556,1.5712,1.5727,1.5771,1.5785,1.5793,1.5815,1.5849,1.585,1.6031,1.6031,0,0,1.5459,1.5429,1.5521,1.5541,1.5514,1.555,1.5561,1.5722,1.5736,1.5786,1.5798,1.5818,1.585,1.5852,1.603,1.6031,0,0,0,1.5429,1.5423,1.547,1.5532,1.5563,1.5555,1.5567,1.5728,1.5746,1.58,1.5821,1.5852,1.5854,1.603,1.603,1.6029,0,0,0,1.5423,1.5405,1.5466,1.5449,1.556,1.5648,1.557,1.5735,1.5754,1.582,1.5852,1.5856,1.6029,1.603,1.6028,1.6034,0,0,0,1.5394,1.5402,1.5424,1.5447,1.5518,1.5646,1.5673,1.574,1.5767,1.5849,1.5856,1.6029,1.603,1.6027,1.6032,1.6071,0,0,0,1.5355,1.5422,1.5423,1.5506,1.5516,1.5644,1.5672,1.5769,1.584,1.5853,1.6029,1.603,1.6027,1.6031,1.6069,1.6097,1.6106,0,0,1.5423,1.5429,1.5481,1.5486,1.5605,1.5621,1.5741,1.5834,1.587,1.5975,1.598,1.6028,1.6032,1.6071,1.6171,1.6178,0,0,0,1.5492,1.5529,1.5567,1.5632,1.5703,1.5765,1.5843,1.5877,1.5968,1.5918,1.6055,1.6058,1.6082,1.6096,1.6102,1.6124,1.6036,1.6036,1.6036,1.5547,1.5587,1.5674,1.5734,1.5797,1.5875,1.5929,1.5989,1.6014,1.6045,1.6076,1.6132,1.6148,1.6152,1.6174,1.6095,1.6095,1.6095,1.6095,1.565,1.5707,1.5735,1.5829,1.5871,1.5951,1.6029,1.6043,1.6123,1.6112,1.6135,1.6118,1.6159,1.618,1.6096,1.6096,1.6096,1.6096,1.6096,1.5689,1.5723,1.5763,1.5859,1.5929,1.5988,1.6062,1.6099,1.6135,1.6158,1.6193,1.6193,1.6196,1.6172,1.6172,1.6172,1.6173,1.6173,1.6173,1.5713,1.5758,1.5816,1.5896,1.5941,1.6005,1.6084,1.613,1.619,1.6211,1.6211,1.6231,1.6156,1.6135,1.6176,1.6175,1.6175,1.6175,1.6175,1.5799,1.5785,1.5874,1.5919,1.6016,1.6081,1.6127,1.6217,1.626,1.6296,1.6311,1.625,1.6259,1.6254,1.6237,1.6303,1.6303,1.6303,1.6303,1.583,1.5838,1.5937,1.6006,1.6078,1.6128,1.6227,1.6288,1.635,1.6379,1.6375,1.6356,1.635,1.6363,1.6356,1.6341,1.6431,1.6431,1.6431,1.5884,1.5901,1.5978,1.6036,1.6114,1.618,1.6273,1.6352,1.6419,1.6437,1.6402,1.6397,1.6367,1.6355,1.6371,1.6359,1.6332,0,0]},{"header":{"parameterUnit":"m.s-1","parameterCategory":1,"la1":30.2992,"la2":30.254,"lo1":-89.0895,"lo2":-89.0443,"dy":0.0025,"dx":0.0025,"nx":19,"ny":19,"refTime":"2026-04-17T09:00:00:Z","depth":0,"parameterNumber":3,"parameterNumberName":"V-component_of_WINDS"},"data":[0,0,0,4.7324,4.7328,4.7515,4.7515,4.7747,4.7749,0,0,0,0,0,0,0,0,0,0,0,4.7269,4.7271,4.7324,4.7328,4.7515,4.7515,4.7746,4.7749,0,0,0,0,0,0,0,0,0,0,0,4.7268,4.727,4.7273,4.7329,4.7515,4.7516,4.7746,4.7607,0,0,0,0,0,0,0,0,0,0,4.7426,4.7377,4.727,4.7273,4.733,4.7514,4.7516,4.76,4.7615,4.7661,0,4.7706,0,4.7732,4.7764,4.7765,0,0,0,4.7326,4.7365,4.7415,4.7273,4.7332,4.7514,4.743,4.7609,4.7626,4.7681,4.7709,4.7718,4.7736,4.7766,4.7767,4.8048,4.805,0,0,4.7316,4.7302,4.7403,4.7426,4.7403,4.7424,4.7436,4.7619,4.7647,4.771,4.7723,4.7739,4.7767,4.7769,4.8047,4.8049,0,0,0,4.7288,4.7295,4.7341,4.7417,4.7451,4.743,4.7443,4.7638,4.7655,4.7726,4.7742,4.7769,4.7772,4.8046,4.8048,4.8105,0,0,0,4.7282,4.7278,4.7336,4.7329,4.7448,4.7548,4.7458,4.7642,4.7664,4.7741,4.7769,4.7774,4.8044,4.8047,4.81,4.8133,0,0,0,4.7257,4.7275,4.7303,4.7328,4.7408,4.7546,4.7573,4.7647,4.7674,4.7765,4.7775,4.8043,4.8046,4.8096,4.8126,4.8204,0,0,0,4.7224,4.7348,4.7304,4.7448,4.7407,4.7582,4.7572,4.7701,4.7787,4.777,4.8044,4.8048,4.8095,4.8122,4.8199,4.8266,4.8293,0,0,4.7372,4.7366,4.7452,4.7417,4.7597,4.7554,4.7741,4.783,4.7849,4.798,4.7987,4.8102,4.8126,4.8203,4.8451,4.8472,0,0,0,4.7493,4.7555,4.7606,4.769,4.7765,4.783,4.7894,4.7927,4.8039,4.7915,4.8151,4.8166,4.8212,4.8244,4.8262,4.8302,4.8062,4.8062,4.8062,4.768,4.7703,4.7846,4.7891,4.7972,4.8038,4.8104,4.8159,4.8154,4.821,4.8248,4.8397,4.8435,4.8449,4.849,4.8286,4.8287,4.8287,4.8287,4.7898,4.7988,4.7984,4.8122,4.8143,4.8257,4.8324,4.8317,4.8424,4.8369,4.841,4.8348,4.8472,4.8508,4.8291,4.8291,4.829,4.829,4.8289,4.8021,4.8069,4.8111,4.8236,4.8328,4.8367,4.8472,4.8486,4.85,4.8541,4.8583,4.8582,4.8582,4.856,4.8561,4.8561,4.8562,4.8562,4.8563,4.8133,4.8179,4.8267,4.836,4.8416,4.8491,4.8559,4.8613,4.8676,4.8678,4.8679,4.8668,4.8481,4.8433,4.8571,4.8569,4.8568,4.8567,4.8567,4.8343,4.8299,4.8436,4.8493,4.8602,4.8693,4.8712,4.8821,4.8867,4.8918,4.8899,4.8759,4.8751,4.8737,4.8697,4.8895,4.8895,4.8895,4.8895,4.8447,4.8447,4.8591,4.8681,4.8771,4.8803,4.8953,4.9007,4.9054,4.9083,4.9057,4.9006,4.8991,4.8992,4.8972,4.8935,4.9189,4.919,4.919,4.8578,4.8587,4.8714,4.8766,4.8852,4.8925,4.9067,4.9166,4.921,4.9202,4.9106,4.9094,4.9012,4.8985,4.8972,4.8941,4.8874,0,0]}]]